Location: �perlecques
(50.8057°N, 2.1521°E)
Time: 21:09:33
(UTC+00:00)

Tiros 1 - Pass Details

Date: 06 August 2021
Orbit: 630 x 663 km, 48.4° (Epoch: 28 September)

Event Time Altitude Azimuth Distance (km) Brightness Sun altitude
Rises 15:07:08 0° 199° (SSW) 2,982 11.1 39.0°
Reaches altitude 10° 15:10:15 10° 178° (S) 2,073 10.1 38.6°
Maximum altitude 15:13:11 16° 140° (SE) 1,694 9.3 38.2°
Drops below altitude 10° 15:16:06 10° 102° (ESE) 2,073 9.5 37.7°
Sets 15:19:13 0° 82° (E) 2,983 10.1 37.3°
